[[{"header":{"parameterUnit":"m.s-1","parameterCategory":2,"la1":30.2991,"la2":30.254,"lo1":-89.0895,"lo2":-89.0444,"dy":0.0017,"dx":0.0017,"nx":28,"ny":28,"refTime":"2025-07-11T03:00:00:Z","depth":"0","parameterNumber":2,"parameterNumberName":"U-component_of_CURRENTS"},"data":[0,0,0,0,0,0,0,0,0,0,0,0,0,0,0,0,0,0,0,0,0,0,0,0,0,0,0,0,0,0,0,0,0,0,0,0,0,0,0,0,0,0,0,0,0,0,0,0,0,0,0,0,0,0,0,0,0,0,-0.2771,-0.2772,0,-0.2789,-0.2789,-0.279,-0.2761,-0.2761,-0.276,-0.2759,-0.271,-0.2709,-0.2709,0,0,0,0,0,0,0,0,0,0,0,0,0,-0.2789,-0.2789,-0.2771,-0.2772,-0.2772,-0.2789,-0.2789,-0.279,-0.2762,-0.276,-0.2759,-0.2758,-0.271,-0.2709,-0.2709,0,0,0,0,0,0,0,0,0,0,0,0,0,-0.2792,-0.2788,-0.2771,-0.276,-0.2759,-0.2789,-0.2789,-0.279,-0.2762,-0.276,-0.2759,-0.2758,-0.271,-0.2709,-0.2709,-0.2735,0,0,-0.2707,-0.2707,0,0,0,0,0,0,0,0,-0.2792,-0.2791,-0.2761,-0.2761,-0.276,-0.2771,-0.2778,-0.2768,-0.2762,-0.2761,-0.2759,-0.2757,-0.2725,-0.2723,-0.2731,-0.2733,-0.2731,-0.2707,-0.2707,-0.2706,-0.2706,0,0,0,0,0,0,0,-0.2791,-0.2791,-0.2779,-0.2762,-0.2761,-0.278,-0.2778,-0.2777,-0.275,-0.2761,-0.2759,-0.2761,-0.2724,-0.2732,-0.273,-0.273,-0.2707,-0.2707,-0.2706,-0.2706,-0.2747,-0.2748,0,0,0,0,0,0,-0.2786,-0.279,-0.2778,-0.2779,-0.2772,-0.278,-0.2778,-0.2769,-0.2752,-0.2748,-0.2762,-0.276,-0.2734,-0.273,-0.2728,-0.2749,-0.2706,-0.2706,-0.2706,-0.2746,-0.2747,-0.2749,0,0,0,0,0,0,-0.2786,-0.2785,-0.2777,-0.2786,-0.2786,-0.2781,-0.2772,-0.277,-0.2767,-0.2753,-0.2748,-0.2759,-0.2732,-0.2728,-0.2738,-0.2746,-0.2706,-0.2705,-0.2744,-0.2746,-0.2748,-0.2796,0,0,0,0,0,0,-0.2787,-0.2784,-0.2769,-0.2785,-0.2785,-0.279,-0.2773,-0.2772,-0.2771,-0.2768,-0.2749,-0.2744,-0.2731,-0.2739,-0.2737,-0.2745,-0.2705,-0.2742,-0.2745,-0.2747,-0.2792,-0.2799,-0.2805,0,0,0,0,0,-0.2787,-0.2765,-0.2768,-0.2767,-0.2766,-0.279,-0.2792,-0.2785,-0.2773,-0.2775,-0.2775,-0.2744,-0.2754,-0.274,-0.2738,-0.2745,-0.2741,-0.2744,-0.2747,-0.2789,-0.2798,-0.2805,0,0,0,0,0,0,-0.2761,-0.2761,-0.2764,-0.2742,-0.2766,-0.2785,-0.2774,-0.2785,-0.2789,-0.2778,-0.2766,-0.2762,-0.2775,-0.276,-0.2745,-0.2767,-0.274,-0.2743,-0.2773,-0.2781,-0.2787,-0.2795,-0.2704,0,0,0,0,0,-0.2753,-0.2728,-0.2757,-0.2736,-0.2746,-0.2765,-0.277,-0.2777,-0.2787,-0.2785,-0.2782,-0.2779,-0.2791,-0.2784,-0.2789,-0.2801,-0.2784,-0.2804,-0.281,-0.2816,-0.2822,-0.2804,-0.2809,-0.2759,-0.2759,-0.2759,0,0,-0.2727,-0.273,-0.271,-0.2728,-0.2738,-0.2764,-0.2763,-0.277,-0.2799,-0.278,-0.28,-0.2802,-0.2802,-0.2821,-0.2823,-0.2804,-0.2825,-0.282,-0.2824,-0.2828,-0.2808,-0.2812,-0.2816,-0.2762,-0.2761,-0.2761,0,0,-0.2678,-0.268,-0.2651,-0.2684,-0.271,-0.2744,-0.2749,-0.2781,-0.2796,-0.2828,-0.2828,-0.284,-0.2846,-0.2857,-0.2862,-0.2906,-0.2865,-0.2902,-0.2931,-0.2914,-0.2917,-0.292,-0.2917,-0.2919,-0.2898,-0.2898,-0.2898,0,-0.2647,-0.2633,-0.265,-0.266,-0.2694,-0.2738,-0.2759,-0.2792,-0.2827,-0.2853,-0.2832,-0.2872,-0.2865,-0.2905,-0.2924,-0.2919,-0.2906,-0.2899,-0.292,-0.2922,-0.2924,-0.2921,-0.2923,-0.2901,-0.29,-0.29,-0.29,0,-0.2588,-0.2602,-0.2596,-0.2629,-0.2676,-0.2697,-0.2772,-0.2812,-0.2841,-0.2874,-0.2916,-0.292,-0.2941,-0.2944,-0.2947,-0.2972,-0.296,-0.2933,-0.2896,-0.2932,-0.2927,-0.2927,-0.2904,-0.2903,-0.2903,-0.2902,0,0,-0.2445,-0.2535,-0.2532,-0.2582,-0.2671,-0.2709,-0.278,-0.2862,-0.2904,-0.2933,-0.2978,-0.3006,-0.3007,-0.3014,-0.3018,-0.3007,-0.3016,-0.298,-0.2977,-0.297,-0.2988,-0.2729,-0.2704,-0.2986,-0.2986,-0.2986,-0.2983,0,-0.2393,-0.2436,-0.2495,-0.2564,-0.261,-0.2714,-0.2786,-0.2872,-0.293,-0.2986,-0.301,-0.304,-0.3036,-0.304,-0.3038,-0.3025,-0.3018,-0.302,-0.2961,-0.296,-0.2717,-0.2696,-0.2513,-0.247,-0.2983,-0.2984,-0.2984,0,-0.2299,-0.2366,-0.2431,-0.2583,-0.2608,-0.2664,-0.281,-0.2876,-0.2981,-0.3017,-0.306,-0.308,-0.3109,-0.3075,-0.307,-0.3069,-0.304,-0.3016,-0.3014,-0.2752,-0.2699,-0.2516,-0.2452,-0.2424,-0.2984,-0.2984,-0.2984,0,-0.2211,-0.2313,-0.2383,-0.2431,-0.2603,-0.266,-0.2746,-0.2873,-0.2936,-0.3028,-0.3058,-0.3104,-0.3108,-0.3091,-0.3048,-0.3064,-0.3008,-0.3018,-0.2766,-0.275,-0.2569,-0.2533,-0.2456,-0.2998,-0.2998,-0.2998,-0.2998,0,-0.2141,-0.2192,-0.2349,-0.2398,-0.2486,-0.2617,-0.2705,-0.2798,-0.291,-0.2969,-0.3054,-0.3084,-0.3105,-0.3083,-0.3054,-0.2882,-0.3007,-0.2756,-0.2712,-0.2579,-0.2545,-0.2489,-0.2568,-0.2998,-0.2998,-0.2998,-0.2998,0,-0.2041,-0.2133,-0.2229,-0.2406,-0.2451,-0.2516,-0.2672,-0.2734,-0.2846,-0.2922,-0.2947,-0.3057,-0.3007,-0.299,-0.2947,-0.284,-0.2659,-0.2648,-0.2485,-0.2415,-0.2087,-0.2177,-0.2094,-0.2043,-0.2367,-0.236,-0.2354,0,-0.1993,-0.2037,-0.2214,-0.2263,-0.2341,-0.2448,-0.2521,-0.2674,-0.2742,-0.2891,-0.2916,-0.2919,-0.2899,-0.2726,-0.2519,-0.2357,-0.2436,-0.2085,-0.2048,-0.2008,-0.2082,-0.2183,-0.2159,-0.1876,-0.1867,-0.1859,-0.1853,0,-0.1933,-0.1998,-0.2092,-0.2191,-0.227,-0.2359,-0.2471,-0.2515,-0.2685,-0.2739,-0.2801,-0.2797,-0.2611,-0.2308,-0.2037,-0.195,-0.1999,-0.1915,-0.1936,-0.1713,-0.1764,-0.1712,-0.198,-0.1786,-0.1793,-0.1798,-0.1802,-0.1804,-0.1876,-0.1918,-0.2033,-0.2114,-0.2191,-0.2255,-0.2271,-0.2376,-0.2439,-0.2457,-0.2569,-0.2386,-0.2048,-0.1615,-0.159,-0.1263,-0.1487,-0.119,-0.132,-0.1438,-0.1311,-0.1393,-0.1085,-0.1087,-0.109,-0.1092,-0.1093,0,-0.1811,-0.1874,-0.1947,-0.2032,-0.2052,-0.2135,-0.2221,-0.2183,-0.2175,-0.2102,-0.2073,-0.154,-0.1237,-0.1019,-0.0654,-0.0665,-0.0784,-0.0729,-0.0907,-0.0923,-0.1021,-0.0911,-0.047,-0.047,-0.047,-0.047,-0.047,-0.047,-0.178,-0.183,-0.1876,-0.1877,-0.191,-0.1879,-0.1888,-0.1818,-0.1704,-0.1372,-0.101,-0.0806,-0.0496,-0.0425,-0.0382,-0.0431,-0.0587,-0.0568,-0.0712,-0.0853,-0.091,-0.0965,-0.0874,-0.0433,-0.0433,-0.0524,-0.0525,-0.0526]},{"header":{"parameterUnit":"m.s-1","parameterCategory":2,"la1":30.2991,"la2":30.254,"lo1":-89.0895,"lo2":-89.0444,"dy":0.0017,"dx":0.0017,"nx":28,"ny":28,"refTime":"2025-07-11T03:00:00:Z","depth":"0","parameterNumber":3,"parameterNumberName":"V-component_of_CURRENTS"},"data":[0,0,0,0,0,0,0,0,0,0,0,0,0,0,0,0,0,0,0,0,0,0,0,0,0,0,0,0,0,0,0,0,0,0,0,0,0,0,0,0,0,0,0,0,0,0,0,0,0,0,0,0,0,0,0,0,0,0,-0.1073,-0.1073,0,-0.0999,-0.0997,-0.0996,-0.089,-0.0889,-0.0887,-0.0886,-0.072,-0.0717,-0.0714,0,0,0,0,0,0,0,0,0,0,0,0,0,-0.1019,-0.1021,-0.1073,-0.1073,-0.1072,-0.0999,-0.0997,-0.0996,-0.089,-0.0889,-0.0887,-0.0885,-0.0721,-0.0717,-0.0713,0,0,0,0,0,0,0,0,0,0,0,0,0,-0.0999,-0.1022,-0.1073,-0.1014,-0.1009,-0.0999,-0.0997,-0.0995,-0.0891,-0.0889,-0.0887,-0.0885,-0.0722,-0.0717,-0.0713,-0.0725,0,0,-0.0698,-0.0696,0,0,0,0,0,0,0,0,-0.1001,-0.1001,-0.1024,-0.1019,-0.1012,-0.0956,-0.0917,-0.0902,-0.0891,-0.0931,-0.0886,-0.0884,-0.0795,-0.0784,-0.0769,-0.0717,-0.071,-0.0698,-0.0695,-0.0693,-0.0692,0,0,0,0,0,0,0,-0.1002,-0.1003,-0.1039,-0.1023,-0.1016,-0.0956,-0.0951,-0.0913,-0.087,-0.0927,-0.092,-0.092,-0.079,-0.0774,-0.0764,-0.0708,-0.0698,-0.0694,-0.0691,-0.0689,-0.0651,-0.0653,0,0,0,0,0,0,-0.103,-0.1005,-0.1041,-0.1037,-0.1007,-0.0959,-0.0954,-0.0972,-0.0872,-0.0857,-0.0922,-0.0916,-0.0783,-0.077,-0.0758,-0.0784,-0.0693,-0.0689,-0.0686,-0.0649,-0.0651,-0.0653,0,0,0,0,0,0,-0.1029,-0.1034,-0.1044,-0.1021,-0.1019,-0.0964,-0.0984,-0.0972,-0.0952,-0.087,-0.0852,-0.0915,-0.0781,-0.0764,-0.073,-0.0776,-0.0687,-0.0682,-0.0647,-0.065,-0.0652,-0.0824,0,0,0,0,0,0,-0.1028,-0.1035,-0.1053,-0.1025,-0.1022,-0.1064,-0.0986,-0.0972,-0.0957,-0.0948,-0.0858,-0.0841,-0.0778,-0.0738,-0.0725,-0.0767,-0.0679,-0.0645,-0.0648,-0.0651,-0.0816,-0.0833,-0.0846,0,0,0,0,0,-0.1027,-0.1078,-0.1055,-0.1058,-0.1051,-0.1067,-0.106,-0.1008,-0.0959,-0.0976,-0.0902,-0.0843,-0.075,-0.0735,-0.072,-0.0762,-0.0643,-0.0647,-0.0651,-0.081,-0.0829,-0.0846,0,0,0,0,0,0,-0.1063,-0.1071,-0.1045,-0.1094,-0.1088,-0.1051,-0.1062,-0.1021,-0.0976,-0.0959,-0.0862,-0.0842,-0.0831,-0.0773,-0.0759,-0.0761,-0.0689,-0.0691,-0.0815,-0.0833,-0.0848,-0.089,-0.0675,0,0,0,0,0,-0.1083,-0.1121,-0.1109,-0.1147,-0.1151,-0.1104,-0.1099,-0.1071,-0.1031,-0.1008,-0.0943,-0.0878,-0.084,-0.0816,-0.0773,-0.0774,-0.0715,-0.0791,-0.0807,-0.082,-0.0845,-0.0806,-0.082,-0.0667,-0.0667,-0.0667,0,0,-0.1104,-0.1116,-0.1132,-0.1156,-0.1141,-0.1185,-0.1096,-0.1112,-0.1136,-0.0999,-0.1,-0.0929,-0.0851,-0.0852,-0.0843,-0.0807,-0.0829,-0.0825,-0.0837,-0.0855,-0.0812,-0.0827,-0.084,-0.067,-0.0669,-0.0669,0,0,-0.1195,-0.1181,-0.1252,-0.126,-0.1267,-0.1245,-0.1257,-0.1229,-0.1202,-0.1202,-0.1108,-0.1066,-0.1007,-0.0964,-0.0933,-0.1007,-0.091,-0.0989,-0.1101,-0.1063,-0.1076,-0.1086,-0.1017,-0.102,-0.0997,-0.0998,-0.0998,0,-0.1215,-0.1303,-0.1272,-0.1344,-0.1359,-0.1285,-0.1356,-0.1335,-0.1294,-0.1272,-0.1229,-0.1133,-0.107,-0.106,-0.109,-0.1045,-0.0992,-0.104,-0.1085,-0.1094,-0.1102,-0.1028,-0.1029,-0.1006,-0.1005,-0.1004,-0.1004,0,-0.1369,-0.1423,-0.1466,-0.1529,-0.1544,-0.159,-0.1565,-0.1557,-0.1504,-0.1462,-0.1429,-0.1339,-0.1275,-0.1258,-0.1202,-0.1225,-0.1158,-0.1109,-0.1044,-0.1128,-0.1044,-0.1042,-0.1019,-0.1016,-0.1013,-0.1011,0,0,-0.1448,-0.1553,-0.1567,-0.1608,-0.1639,-0.1664,-0.1707,-0.1708,-0.1699,-0.1654,-0.1642,-0.1592,-0.1506,-0.1468,-0.1379,-0.1359,-0.1366,-0.1276,-0.127,-0.1218,-0.1261,-0.1056,-0.1033,-0.1323,-0.1324,-0.1325,-0.1175,0,-0.1568,-0.173,-0.1752,-0.1869,-0.1931,-0.1882,-0.1918,-0.1898,-0.184,-0.1805,-0.1712,-0.1663,-0.1595,-0.155,-0.1531,-0.1393,-0.1371,-0.1409,-0.1179,-0.1172,-0.0989,-0.1028,-0.0868,-0.0707,-0.1172,-0.1172,-0.1171,0,-0.1715,-0.1794,-0.1946,-0.2006,-0.2028,-0.2082,-0.2076,-0.2097,-0.2027,-0.1975,-0.1914,-0.1808,-0.1759,-0.1688,-0.1544,-0.1567,-0.1451,-0.1352,-0.1342,-0.1095,-0.0964,-0.07,-0.0685,-0.0479,-0.1167,-0.1167,-0.1167,0,-0.1779,-0.1919,-0.2034,-0.2063,-0.2133,-0.2168,-0.2184,-0.2142,-0.2129,-0.2065,-0.2025,-0.1938,-0.1862,-0.1749,-0.1535,-0.1545,-0.1353,-0.1324,-0.1034,-0.1016,-0.0806,-0.0767,-0.0572,-0.1252,-0.1252,-0.1252,-0.1253,0,-0.1891,-0.1974,-0.2068,-0.2128,-0.2213,-0.2237,-0.2281,-0.2265,-0.223,-0.2201,-0.2108,-0.2051,-0.1879,-0.1724,-0.1568,-0.1268,-0.1369,-0.1058,-0.097,-0.0855,-0.0824,-0.0572,-0.0567,-0.1247,-0.1248,-0.1249,-0.125,0,-0.1938,-0.202,-0.2129,-0.2223,-0.2252,-0.23,-0.2341,-0.2349,-0.2316,-0.2276,-0.2258,-0.2126,-0.1914,-0.1694,-0.1459,-0.1259,-0.0868,-0.0899,-0.0751,-0.0648,-0.0169,-0.0181,0.0034,0.0169,-0.0559,-0.0553,-0.0548,0,-0.1975,-0.2048,-0.2172,-0.2225,-0.2272,-0.2341,-0.2376,-0.2385,-0.2377,-0.2303,-0.2279,-0.2084,-0.1915,-0.1469,-0.1086,-0.0723,-0.0642,-0.0342,-0.0337,-0.0114,-0.0066,-0.0106,-0.0014,-0.0125,-0.0117,-0.0111,-0.0106,0,-0.1999,-0.2046,-0.2123,-0.2243,-0.2313,-0.2372,-0.2419,-0.2428,-0.2409,-0.2365,-0.2252,-0.2124,-0.1662,-0.1161,-0.0647,-0.042,-0.0164,-0.019,-0.0015,0.0243,0.0261,0.0427,-0.0243,-0.0047,-0.0053,-0.0057,-0.0061,-0.0063,-0.1965,-0.2018,-0.2124,-0.223,-0.2309,-0.2363,-0.2364,-0.2377,-0.2351,-0.2171,-0.2138,-0.1751,-0.1153,-0.0403,-0.0188,0.0486,0.0282,0.0692,0.0646,0.0578,0.0742,0.0227,0.0559,0.0557,0.0555,0.0553,0.0552,0,-0.1893,-0.1987,-0.21,-0.2209,-0.2266,-0.2325,-0.2352,-0.2274,-0.2185,-0.1919,-0.1725,-0.0881,-0.0275,0.0283,0.1081,0.133,0.1302,0.1428,0.138,0.1425,0.0963,0.1024,0.154,0.154,0.154,0.1539,0.1539,0.1539,-0.1852,-0.1946,-0.2038,-0.2132,-0.2194,-0.2184,-0.2168,-0.2022,-0.178,-0.12,-0.061,-0.0205,0.0557,0.1289,0.191,0.1962,0.2055,0.2023,0.2037,0.17,0.1626,0.1556,0.1623,0.2255,0.2256,0.2569,0.2571,0.2573]}],[{"header":{"parameterUnit":"m.s-1","parameterCategory":2,"la1":30.2991,"la2":30.254,"lo1":-89.0895,"lo2":-89.0444,"dy":0.0017,"dx":0.0017,"nx":28,"ny":28,"refTime":"2025-07-11T03:00:00:Z","depth":"2","parameterNumber":2,"parameterNumberName":"U-component_of_CURRENTS"},"data":[0,0,0,0,0,0,0,0,0,0,0,0,0,0,0,0,0,0,0,0,0,0,0,0,0,0,0,0,0,0,0,0,0,0,0,0,0,0,0,0,0,0,0,0,0,0,0,0,0,0,0,0,0,0,0,0,0,0,-0.2064,-0.2064,0,-0.2078,-0.2078,-0.2078,-0.2179,-0.2181,-0.2184,-0.2186,-0.2305,-0.2305,-0.2306,0,0,0,0,0,0,0,0,0,0,0,0,0,-0.2072,-0.2072,-0.2064,-0.2064,-0.2064,-0.2078,-0.2078,-0.2078,-0.2178,-0.2182,-0.2185,-0.2187,-0.2304,-0.2305,-0.2306,0,0,0,0,0,0,0,0,0,0,0,0,0,-0.2075,-0.2071,-0.2064,-0.2116,-0.2121,-0.2078,-0.2078,-0.2078,-0.2178,-0.2182,-0.2185,-0.2189,-0.2304,-0.2305,-0.2306,-0.2238,0,0,-0.231,-0.231,0,0,0,0,0,0,0,0,-0.2075,-0.2075,-0.2109,-0.2113,-0.2118,-0.2131,-0.2124,-0.2137,-0.2177,-0.2156,-0.2186,-0.2191,-0.2254,-0.2259,-0.2251,-0.2244,-0.2249,-0.231,-0.2311,-0.2311,-0.2312,0,0,0,0,0,0,0,-0.2074,-0.2074,-0.2069,-0.2108,-0.2114,-0.2121,-0.2126,-0.2126,-0.2185,-0.2158,-0.2165,-0.2166,-0.2258,-0.225,-0.2255,-0.225,-0.231,-0.2311,-0.2312,-0.2312,-0.2296,-0.2295,0,0,0,0,0,0,-0.2072,-0.2074,-0.2069,-0.2069,-0.2106,-0.2118,-0.2124,-0.2123,-0.2183,-0.2195,-0.2163,-0.2171,-0.2246,-0.2253,-0.226,-0.2317,-0.2311,-0.2312,-0.2313,-0.2297,-0.2296,-0.2295,0,0,0,0,0,0,-0.2072,-0.2071,-0.2068,-0.2073,-0.2073,-0.2115,-0.2112,-0.2121,-0.214,-0.2186,-0.2201,-0.2178,-0.2249,-0.2258,-0.2284,-0.2318,-0.2313,-0.2314,-0.2299,-0.2297,-0.2295,-0.2346,0,0,0,0,0,0,-0.2072,-0.2071,-0.2066,-0.2072,-0.2073,-0.2079,-0.2109,-0.2118,-0.2134,-0.2145,-0.2202,-0.2215,-0.2253,-0.2282,-0.2285,-0.232,-0.2315,-0.23,-0.2298,-0.2296,-0.2346,-0.2347,-0.2347,0,0,0,0,0,-0.2072,-0.2062,-0.2066,-0.2065,-0.2066,-0.208,-0.2082,-0.2123,-0.2131,-0.215,-0.2176,-0.2215,-0.2271,-0.2281,-0.2286,-0.2322,-0.2301,-0.2298,-0.2296,-0.2346,-0.2346,-0.2347,0,0,0,0,0,0,-0.2065,-0.2071,-0.2076,-0.2068,-0.2087,-0.2099,-0.2103,-0.2117,-0.2144,-0.2154,-0.2195,-0.221,-0.2249,-0.2251,-0.2261,-0.2302,-0.2293,-0.2291,-0.2329,-0.233,-0.233,-0.2362,-0.2316,0,0,0,0,0,-0.2054,-0.205,-0.2063,-0.2057,-0.2061,-0.2074,-0.2079,-0.2107,-0.2128,-0.2144,-0.2177,-0.2201,-0.2228,-0.2255,-0.2272,-0.2284,-0.2282,-0.2305,-0.2305,-0.2306,-0.2329,-0.2363,-0.2371,-0.2286,-0.2286,-0.2286,0,0,-0.2046,-0.2048,-0.2046,-0.2055,-0.2061,-0.2086,-0.2089,-0.2103,-0.2141,-0.2148,-0.2196,-0.2202,-0.2226,-0.2262,-0.2278,-0.228,-0.2312,-0.2303,-0.2304,-0.2328,-0.2362,-0.2371,-0.2379,-0.2284,-0.2285,-0.2285,0,0,-0.2038,-0.2031,-0.2032,-0.2052,-0.207,-0.2086,-0.2093,-0.211,-0.2142,-0.2163,-0.2187,-0.2209,-0.2234,-0.2276,-0.2295,-0.2292,-0.2309,-0.2291,-0.2337,-0.2369,-0.2378,-0.2386,-0.2335,-0.2338,-0.2299,-0.2299,-0.2299,0,-0.2034,-0.2039,-0.2037,-0.2056,-0.2082,-0.2091,-0.2122,-0.2144,-0.2174,-0.2197,-0.2195,-0.2234,-0.225,-0.2315,-0.2323,-0.2304,-0.2296,-0.2345,-0.2376,-0.2384,-0.2392,-0.2338,-0.2341,-0.2301,-0.2301,-0.2301,-0.23,0,-0.2037,-0.2053,-0.2055,-0.209,-0.2117,-0.2139,-0.218,-0.221,-0.2226,-0.2246,-0.2294,-0.23,-0.2336,-0.2334,-0.2336,-0.2397,-0.2359,-0.2373,-0.239,-0.2405,-0.2344,-0.2346,-0.2304,-0.2303,-0.2303,-0.2302,0,0,-0.2002,-0.205,-0.2053,-0.2089,-0.2141,-0.2166,-0.223,-0.2288,-0.2324,-0.2348,-0.2387,-0.2429,-0.242,-0.2439,-0.2438,-0.2465,-0.248,-0.2448,-0.2449,-0.2422,-0.2498,-0.2337,-0.2323,-0.2517,-0.2519,-0.2521,-0.2414,0,-0.2011,-0.2056,-0.2085,-0.2151,-0.2184,-0.2236,-0.2291,-0.2348,-0.2381,-0.2412,-0.2434,-0.2453,-0.2467,-0.2465,-0.2508,-0.2494,-0.2499,-0.2504,-0.2467,-0.2464,-0.2343,-0.2327,-0.2139,-0.2019,-0.2416,-0.2416,-0.2417,0,-0.2008,-0.2046,-0.2104,-0.2193,-0.2211,-0.2258,-0.2353,-0.2407,-0.2463,-0.2478,-0.2524,-0.2514,-0.2559,-0.2541,-0.2581,-0.2589,-0.2552,-0.253,-0.2526,-0.2373,-0.231,-0.2077,-0.2009,-0.2421,-0.242,-0.242,-0.242,0,-0.1987,-0.2063,-0.2113,-0.2144,-0.2238,-0.2289,-0.2347,-0.2424,-0.2438,-0.2511,-0.2509,-0.2573,-0.2563,-0.2597,-0.2549,-0.2577,-0.2541,-0.257,-0.2382,-0.2366,-0.2197,-0.2163,-0.2582,-0.2582,-0.2583,-0.2583,-0.2583,0,-0.199,-0.2029,-0.2107,-0.2139,-0.2192,-0.2282,-0.234,-0.2403,-0.244,-0.2445,-0.2537,-0.2509,-0.2583,-0.2557,-0.2548,-0.245,-0.2545,-0.2381,-0.2344,-0.2195,-0.2165,-0.2524,-0.2519,-0.2579,-0.258,-0.2581,-0.2581,0,-0.1953,-0.2005,-0.2062,-0.216,-0.2179,-0.2224,-0.2286,-0.2296,-0.2394,-0.2401,-0.2406,-0.2436,-0.2412,-0.2432,-0.2415,-0.2398,-0.2343,-0.2272,-0.2042,-0.198,-0.2143,-0.2141,-0.208,-0.2074,-0.2068,-0.2064,-0.206,0,-0.1938,-0.1958,-0.2038,-0.2052,-0.2094,-0.2159,-0.2156,-0.2236,-0.2238,-0.2329,-0.2288,-0.2273,-0.2206,-0.2117,-0.2055,-0.198,-0.2125,-0.1786,-0.1822,-0.2129,-0.21,-0.2106,-0.2111,-0.1586,-0.1579,-0.1573,-0.1568,0,-0.1889,-0.191,-0.1945,-0.1962,-0.1969,-0.1994,-0.2026,-0.199,-0.2088,-0.2106,-0.2053,-0.2,-0.1899,-0.1709,-0.1635,-0.1584,-0.1801,-0.1658,-0.206,-0.1741,-0.1655,-0.1629,-0.1653,-0.1515,-0.1521,-0.1525,-0.1527,-0.153,-0.1826,-0.1822,-0.1841,-0.1843,-0.1858,-0.1833,-0.1801,-0.181,-0.1772,-0.1744,-0.1753,-0.1649,-0.1629,-0.1372,-0.1276,-0.1213,-0.1361,-0.1356,-0.1379,-0.1407,-0.1368,-0.1278,-0.1055,-0.1057,-0.106,-0.1062,-0.1063,0,-0.1733,-0.1721,-0.1714,-0.1701,-0.1647,-0.1738,-0.1694,-0.1609,-0.1524,-0.1457,-0.1376,-0.1194,-0.1055,-0.1046,-0.0843,-0.0814,-0.0855,-0.0799,-0.0877,-0.0926,-0.0971,-0.0917,-0.048,-0.0479,-0.0478,-0.0477,0,0,-0.1684,-0.1623,-0.16,-0.1477,-0.1496,-0.1436,-0.1408,-0.1258,-0.1172,-0.0979,-0.0898,-0.0931,-0.0982,-0.0758,-0.0686,-0.054,-0.0729,-0.0492,-0.0949,-0.1085,-0.1129,-0.1266,-0.1232,0,0,0,0,0]},{"header":{"parameterUnit":"m.s-1","parameterCategory":2,"la1":30.2991,"la2":30.254,"lo1":-89.0895,"lo2":-89.0444,"dy":0.0017,"dx":0.0017,"nx":28,"ny":28,"refTime":"2025-07-11T03:00:00:Z","depth":"2","parameterNumber":3,"parameterNumberName":"V-component_of_CURRENTS"},"data":[0,0,0,0,0,0,0,0,0,0,0,0,0,0,0,0,0,0,0,0,0,0,0,0,0,0,0,0,0,0,0,0,0,0,0,0,0,0,0,0,0,0,0,0,0,0,0,0,0,0,0,0,0,0,0,0,0,0,-0.0168,-0.0167,0,-0.0095,-0.0094,-0.0093,-0.0029,-0.0028,-0.0027,-0.0027,0.0105,0.0107,0.011,0,0,0,0,0,0,0,0,0,0,0,0,0,-0.0245,-0.0244,-0.0168,-0.0167,-0.0166,-0.0095,-0.0094,-0.0093,-0.0029,-0.0028,-0.0027,-0.0026,0.0104,0.0107,0.0111,0,0,0,0,0,0,0,0,0,0,0,0,0,-0.0195,-0.0243,-0.0168,-0.0126,-0.0121,-0.0095,-0.0094,-0.0093,-0.0029,-0.0028,-0.0027,-0.0026,0.0103,0.0107,0.0111,0.0116,0,0,0.0124,0.0126,0,0,0,0,0,0,0,0,-0.0198,-0.0193,-0.0133,-0.0129,-0.0124,-0.007,-0.0073,-0.002,-0.0029,-0.0064,-0.0027,-0.0025,0.0051,0.0059,0.007,0.0122,0.0128,0.0124,0.0127,0.0129,0.013,0,0,0,0,0,0,0,-0.0202,-0.0195,-0.0139,-0.0132,-0.0127,-0.0108,-0.01,-0.0063,-0.0012,-0.0061,-0.0056,-0.0049,0.0054,0.0066,0.0074,0.013,0.0124,0.0128,0.0131,0.0132,0.022,0.022,0,0,0,0,0,0,-0.0213,-0.0199,-0.0141,-0.0136,-0.016,-0.0108,-0.0099,-0.0088,-0.0013,-0.0002,-0.005,-0.0046,0.0058,0.0069,0.0079,0.0111,0.0129,0.0133,0.0135,0.022,0.022,0.0219,0,0,0,0,0,0,-0.0215,-0.0209,-0.0144,-0.0166,-0.0157,-0.0108,-0.0096,-0.0087,-0.0069,-0.0006,0.0007,-0.0041,0.0059,0.0073,0.0113,0.0116,0.0135,0.0139,0.022,0.022,0.022,0.0162,0,0,0,0,0,0,-0.0217,-0.021,-0.0208,-0.0167,-0.0156,-0.0126,-0.0097,-0.0087,-0.0067,-0.0061,0.0006,0.0019,0.0061,0.0106,0.0117,0.0122,0.0142,0.0221,0.022,0.022,0.0164,0.016,0.0156,0,0,0,0,0,-0.022,-0.0215,-0.0208,-0.0201,-0.0154,-0.0126,-0.0119,-0.008,-0.0068,-0.0061,-0.0019,0.0017,0.0111,0.0109,0.0122,0.0129,0.0221,0.022,0.022,0.0166,0.0161,0.0156,0,0,0,0,0,0,-0.0241,-0.0207,-0.0198,-0.0181,-0.0158,-0.0115,-0.0105,-0.0086,-0.005,-0.0044,0.0014,0.0029,0.0066,0.0101,0.0097,0.0152,0.0172,0.0174,0.0127,0.0122,0.0118,0.0107,0.0145,0,0,0,0,0,-0.0249,-0.0238,-0.0206,-0.0194,-0.0185,-0.015,-0.0136,-0.0113,-0.0077,-0.006,-0.0015,0.0031,0.0072,0.0099,0.0139,0.0167,0.0242,0.018,0.0176,0.0172,0.0171,0.0291,0.0299,0.0218,0.0218,0.0218,0,0,-0.0254,-0.0235,-0.0227,-0.0199,-0.0178,-0.0176,-0.0138,-0.0119,-0.0115,-0.0051,-0.0028,0.0018,0.0075,0.0109,0.0128,0.014,0.0235,0.0172,0.0168,0.0169,0.0292,0.03,0.0308,0.0217,0.0217,0.0217,0,0,-0.0263,-0.0243,-0.0242,-0.0233,-0.021,-0.0191,-0.0189,-0.0152,-0.013,-0.0108,-0.006,-0.0013,0.0042,0.009,0.0119,0.0115,0.0207,0.0126,0.0101,0.0218,0.0226,0.0234,0.0343,0.0361,0.0126,0.0126,0.0126,0,-0.0273,-0.0274,-0.0238,-0.0244,-0.0249,-0.0204,-0.022,-0.019,-0.0145,-0.0127,-0.0108,-0.001,0.0034,0.0091,0.0084,0.0107,0.0189,0.0114,0.0214,0.0224,0.0233,0.0343,0.0364,0.0123,0.0124,0.0124,0.0124,0,-0.0287,-0.0298,-0.0298,-0.0298,-0.0293,-0.0298,-0.0267,-0.0249,-0.0222,-0.0185,-0.0125,-0.0053,0.0009,0.0029,0.0053,0.0132,0.0174,0.0195,0.0229,0.0238,0.0353,0.0376,0.0119,0.012,0.0121,0.0122,0,0,-0.0285,-0.0308,-0.031,-0.0344,-0.0332,-0.0336,-0.0324,-0.0301,-0.0282,-0.022,-0.0178,-0.011,-0.0054,-0.0018,0.0038,0.0131,0.0259,0.0181,0.0189,0.0291,0.0528,0.0426,0.0443,0.0309,0.0312,0.0315,0.0583,0,-0.0315,-0.0366,-0.0357,-0.0411,-0.0445,-0.0416,-0.0411,-0.0379,-0.0326,-0.0265,-0.0168,-0.0104,-0.0074,-0.0033,0.0062,0.0224,0.0317,0.0185,0.05,0.0509,0.0421,0.0464,0.043,0.0653,0.0606,0.061,0.0613,0,-0.0334,-0.0379,-0.0445,-0.05,-0.0507,-0.0521,-0.0512,-0.0499,-0.0396,-0.0345,-0.0249,-0.0155,-0.0014,0.0007,0.0295,0.0217,0.0352,0.0473,0.0487,0.0427,0.045,0.0635,0.0697,0.0652,0.0649,0.0646,0.0643,0,-0.038,-0.0438,-0.0507,-0.0528,-0.0566,-0.0583,-0.0589,-0.0523,-0.0501,-0.0379,-0.0306,-0.0143,-0.0006,0.0172,0.0392,0.0371,0.0714,0.0727,0.0764,0.076,0.0806,0.0797,0.0914,0.0914,0.0913,0.0912,0.0912,0,-0.0428,-0.0482,-0.0539,-0.0586,-0.0653,-0.0649,-0.0666,-0.0636,-0.0555,-0.0482,-0.0346,-0.0219,0.005,0.0266,0.0422,0.0663,0.075,0.077,0.0823,0.078,0.0766,0.0816,0.0801,0.0922,0.092,0.0918,0.0916,0,-0.0472,-0.0504,-0.0599,-0.0667,-0.0684,-0.0735,-0.0742,-0.073,-0.0635,-0.052,-0.0473,-0.0214,0.0091,0.0322,0.0665,0.0728,0.0936,0.0984,0.0895,0.0927,0.0905,0.0884,0.109,0.1089,0.1088,0.1087,0.1086,0,-0.05,-0.0556,-0.0668,-0.0716,-0.0752,-0.0806,-0.0821,-0.0785,-0.0755,-0.0504,-0.0443,-0.0122,0.012,0.0539,0.0726,0.0979,0.0987,0.1023,0.094,0.0893,0.0925,0.0905,0.0886,0.1018,0.1017,0.1016,0.1015,0,-0.0572,-0.061,-0.0692,-0.079,-0.0842,-0.0883,-0.09,-0.0896,-0.0779,-0.0646,-0.0397,-0.0176,0.0262,0.0545,0.0809,0.0927,0.0966,0.1002,0.1063,0.0912,0.0829,0.0856,0.0842,0.1006,0.1006,0.1007,0.1008,0.1008,-0.0618,-0.0691,-0.0785,-0.0869,-0.0915,-0.0938,-0.0948,-0.0921,-0.0852,-0.0619,-0.0397,-0.0028,0.0243,0.0646,0.0795,0.092,0.0956,0.0965,0.0969,0.0975,0.0852,0.0763,0.0908,0.0909,0.0909,0.0909,0.091,0,-0.0685,-0.0755,-0.0844,-0.0938,-0.0979,-0.097,-0.0969,-0.0953,-0.0856,-0.0576,-0.0321,-0.0007,0.0317,0.06,0.0795,0.0874,0.0888,0.0865,0.0888,0.0897,0.0905,0.0778,0.0817,0.0817,0.0817,0.0817,0,0,-0.0725,-0.0828,-0.0874,-0.0964,-0.0994,-0.0997,-0.0977,-0.0942,-0.0777,-0.054,-0.026,0.0082,0.0418,0.05,0.0642,0.0757,0.0789,0.0742,0.0811,0.0832,0.0838,0.0961,0.0774,0,0,0,0,0]}],[{"header":{"parameterUnit":"m.s-1","parameterCategory":2,"la1":30.2991,"la2":30.254,"lo1":-89.0895,"lo2":-89.0444,"dy":0.0017,"dx":0.0017,"nx":28,"ny":28,"refTime":"2025-07-11T03:00:00:Z","depth":"4","parameterNumber":2,"parameterNumberName":"U-component_of_CURRENTS"},"data":[0,0,0,0,0,0,0,0,0,0,0,0,0,0,0,0,0,0,0,0,0,0,0,0,0,0,0,0,0,0,0,0,0,0,0,0,0,0,0,0,0,0,0,0,0,0,0,0,0,0,0,0,0,0,0,0,0,0,-0.1529,-0.1529,0,-0.1566,-0.1566,-0.1566,-0.161,-0.1611,-0.1612,-0.1613,-0.1651,-0.1652,-0.1652,0,0,0,0,0,0,0,0,0,0,0,0,0,-0.1487,-0.1487,-0.1529,-0.1529,-0.153,-0.1566,-0.1566,-0.1566,-0.161,-0.1611,-0.1612,-0.1613,-0.1651,-0.1651,-0.1652,0,0,0,0,0,0,0,0,0,0,0,0,0,-0.1512,-0.1487,-0.1528,-0.1556,-0.1559,-0.1566,-0.1566,-0.1567,-0.161,-0.1611,-0.1612,-0.1613,-0.1651,-0.1651,-0.1652,-0.1632,0,0,-0.1653,-0.1654,0,0,0,0,0,0,0,0,-0.151,-0.1513,-0.1552,-0.1555,-0.1558,-0.1585,-0.1566,-0.1589,-0.161,-0.159,-0.1613,-0.1614,-0.1629,-0.1631,-0.1635,-0.1634,-0.1636,-0.1653,-0.1654,-0.1654,-0.1654,0,0,0,0,0,0,0,-0.1508,-0.1512,-0.1542,-0.1552,-0.1556,-0.1564,-0.1569,-0.157,-0.1602,-0.1592,-0.1595,-0.16,-0.1631,-0.1634,-0.1636,-0.1636,-0.1653,-0.1654,-0.1654,-0.1654,-0.1736,-0.1738,0,0,0,0,0,0,-0.1505,-0.151,-0.1541,-0.1544,-0.1537,-0.1564,-0.1569,-0.1575,-0.1602,-0.1608,-0.1599,-0.1602,-0.1633,-0.1635,-0.1637,-0.1707,-0.1654,-0.1654,-0.1655,-0.1734,-0.1737,-0.1739,0,0,0,0,0,0,-0.1504,-0.1507,-0.154,-0.1528,-0.1533,-0.1564,-0.1569,-0.1575,-0.1608,-0.1608,-0.1614,-0.1631,-0.1634,-0.1637,-0.167,-0.1705,-0.1655,-0.1655,-0.1732,-0.1735,-0.1738,-0.1786,0,0,0,0,0,0,-0.1502,-0.1506,-0.1523,-0.1528,-0.1534,-0.157,-0.1568,-0.1575,-0.1608,-0.1613,-0.1636,-0.1639,-0.1635,-0.1669,-0.167,-0.1705,-0.1655,-0.173,-0.1733,-0.1737,-0.1782,-0.179,-0.1797,0,0,0,0,0,-0.1501,-0.1515,-0.1523,-0.1528,-0.1551,-0.1571,-0.1576,-0.16,-0.1609,-0.1632,-0.1648,-0.164,-0.1693,-0.1671,-0.1672,-0.1707,-0.1728,-0.1732,-0.1736,-0.1779,-0.1789,-0.1797,0,0,0,0,0,0,-0.1505,-0.1521,-0.153,-0.155,-0.1572,-0.158,-0.1602,-0.1614,-0.1644,-0.1655,-0.1653,-0.1658,-0.1701,-0.1699,-0.1674,-0.1744,-0.1713,-0.1718,-0.1745,-0.1755,-0.1762,-0.1745,-0.1656,0,0,0,0,0,-0.1512,-0.1532,-0.1545,-0.1566,-0.1577,-0.1594,-0.161,-0.1626,-0.1644,-0.166,-0.1676,-0.1695,-0.1713,-0.1731,-0.1743,-0.1774,-0.1747,-0.1803,-0.181,-0.1817,-0.1806,-0.179,-0.1794,-0.1753,-0.1753,-0.1752,0,0,-0.152,-0.1532,-0.1544,-0.1569,-0.1586,-0.1611,-0.1607,-0.164,-0.1671,-0.1657,-0.171,-0.1718,-0.1727,-0.1766,-0.1787,-0.1773,-0.1819,-0.1822,-0.1827,-0.1812,-0.1795,-0.1798,-0.1801,-0.1755,-0.1755,-0.1754,0,0,-0.1537,-0.1556,-0.1577,-0.1598,-0.163,-0.1641,-0.1657,-0.1683,-0.171,-0.175,-0.1752,-0.1781,-0.1813,-0.1825,-0.1833,-0.1889,-0.1855,-0.1907,-0.1934,-0.192,-0.1922,-0.1923,-0.1906,-0.1905,-0.1915,-0.1916,-0.1916,0,-0.1551,-0.1572,-0.1588,-0.1613,-0.1634,-0.1658,-0.1686,-0.1715,-0.1753,-0.1767,-0.1781,-0.1822,-0.1838,-0.1867,-0.1897,-0.1904,-0.1885,-0.1896,-0.1926,-0.1927,-0.1928,-0.1909,-0.1908,-0.1918,-0.1918,-0.1918,-0.1918,0,-0.1573,-0.1604,-0.1619,-0.1658,-0.1686,-0.1715,-0.1749,-0.1785,-0.1816,-0.1832,-0.1875,-0.1892,-0.191,-0.1935,-0.1935,-0.196,-0.1941,-0.193,-0.1895,-0.1934,-0.1913,-0.1911,-0.1922,-0.1921,-0.1921,-0.192,0,0,-0.1565,-0.1624,-0.1632,-0.1654,-0.1712,-0.1728,-0.1786,-0.1824,-0.1846,-0.1895,-0.1915,-0.1966,-0.1964,-0.1973,-0.198,-0.1982,-0.1988,-0.1966,-0.1964,-0.1933,-0.195,-0.1814,-0.1798,-0.1977,-0.1977,-0.1977,-0.1936,0,-0.1581,-0.1627,-0.1658,-0.1709,-0.1733,-0.1774,-0.1816,-0.1857,-0.1892,-0.1919,-0.1943,-0.1967,-0.1983,-0.1992,-0.1999,-0.1989,-0.1982,-0.1999,-0.1928,-0.1926,-0.1787,-0.1791,-0.1976,-0.1934,-0.1933,-0.1933,-0.1933,0,-0.1585,-0.1618,-0.1669,-0.172,-0.1734,-0.1773,-0.1824,-0.1863,-0.1906,-0.1931,-0.1957,-0.1967,-0.1995,-0.1992,-0.1988,-0.1996,-0.1975,-0.1963,-0.1961,-0.1808,-0.1784,-0.1885,-0.1928,-0.1928,-0.1929,-0.1929,-0.1929,0,-0.155,-0.1618,-0.1657,-0.168,-0.1748,-0.1779,-0.1814,-0.1865,-0.1877,-0.1932,-0.1937,-0.197,-0.1978,-0.1969,-0.1963,-0.1974,-0.1932,-0.194,-0.1794,-0.1785,-0.1898,-0.1897,-0.1911,-0.1911,-0.1911,-0.1911,-0.1911,0,-0.1533,-0.1566,-0.1647,-0.1667,-0.1696,-0.1759,-0.1782,-0.1825,-0.1863,-0.1854,-0.1931,-0.1916,-0.197,-0.1955,-0.195,-0.1855,-0.192,-0.1781,-0.1756,-0.1924,-0.1926,-0.1897,-0.1896,-0.191,-0.191,-0.191,-0.191,0,-0.1477,-0.154,-0.1578,-0.1658,-0.1679,-0.1697,-0.1739,-0.1736,-0.1808,-0.1798,-0.1812,-0.1869,-0.185,-0.1876,-0.1858,-0.1811,-0.1756,-0.1704,-0.1878,-0.1867,-0.1626,-0.1628,-0.1531,-0.1526,-0.1521,-0.1518,-0.1514,0,-0.1448,-0.1467,-0.1547,-0.1552,-0.1589,-0.1621,-0.1621,-0.1693,-0.1683,-0.1741,-0.1712,-0.1731,-0.1751,-0.1616,-0.1675,-0.1634,-0.1618,-0.159,-0.1609,-0.1596,-0.1583,-0.1593,-0.1601,-0.1507,-0.1506,-0.1505,-0.1504,0,-0.1375,-0.1418,-0.1442,-0.1456,-0.1468,-0.1461,-0.1479,-0.146,-0.1524,-0.1605,-0.155,-0.1534,-0.1503,-0.1502,-0.1477,-0.1456,-0.1613,-0.1542,-0.1552,-0.157,-0.1566,-0.1559,-0.1573,-0.1488,-0.149,-0.1492,-0.1492,0,-0.1311,-0.1302,-0.1333,-0.1322,-0.1333,-0.1289,-0.1321,-0.1296,-0.1299,-0.1383,-0.1355,-0.1395,-0.1461,-0.1405,-0.1385,-0.135,-0.1335,-0.1306,-0.1328,-0.1346,-0.1307,-0.1276,-0.1067,0,0,0,0,0,-0.1234,-0.1198,-0.1185,-0.1159,-0.1163,-0.1164,-0.1207,-0.1245,-0.132,-0.1228,-0.1286,-0.125,-0.1216,-0.125,-0.1174,-0.1312,-0.1351,-0.122,-0.1332,-0.1401,-0.1419,-0.1392,0,0,0,0,0,0,-0.1177,-0.1168,-0.1141,-0.1017,-0.0968,-0.0948,-0.0973,-0.1033,-0.0996,-0.1093,-0.1077,-0.1155,-0.1143,-0.1218,-0.1136,-0.1146,-0.1188,-0.1257,-0.1253,-0.139,-0.1407,-0.1421,-0.14,0,0,0,0,0]},{"header":{"parameterUnit":"m.s-1","parameterCategory":2,"la1":30.2991,"la2":30.254,"lo1":-89.0895,"lo2":-89.0444,"dy":0.0017,"dx":0.0017,"nx":28,"ny":28,"refTime":"2025-07-11T03:00:00:Z","depth":"4","parameterNumber":3,"parameterNumberName":"V-component_of_CURRENTS"},"data":[0,0,0,0,0,0,0,0,0,0,0,0,0,0,0,0,0,0,0,0,0,0,0,0,0,0,0,0,0,0,0,0,0,0,0,0,0,0,0,0,0,0,0,0,0,0,0,0,0,0,0,0,0,0,0,0,0,0,-0.0134,-0.0134,0,-0.009,-0.0089,-0.0089,-0.0062,-0.0061,-0.0061,-0.0061,-0.0019,-0.0018,-0.0017,0,0,0,0,0,0,0,0,0,0,0,0,0,-0.0177,-0.0176,-0.0134,-0.0134,-0.0133,-0.009,-0.0089,-0.0088,-0.0062,-0.0061,-0.0061,-0.0061,-0.0019,-0.0018,-0.0017,0,0,0,0,0,0,0,0,0,0,0,0,0,-0.0148,-0.0176,-0.0134,-0.0115,-0.0112,-0.009,-0.0089,-0.0088,-0.0062,-0.0061,-0.0061,-0.0061,-0.002,-0.0018,-0.0017,-0.0011,0,0,-0.0012,-0.0011,0,0,0,0,0,0,0,0,-0.0149,-0.0146,-0.0118,-0.0116,-0.0113,-0.0081,-0.0089,-0.0063,-0.0062,-0.0081,-0.0061,-0.0061,-0.004,-0.0037,-0.0029,-0.0009,-0.0007,-0.0012,-0.0011,-0.001,-0.001,0,0,0,0,0,0,0,-0.0151,-0.0148,-0.0116,-0.0117,-0.0115,-0.0101,-0.0097,-0.0083,-0.0062,-0.0079,-0.0077,-0.0072,-0.0039,-0.003,-0.0028,-0.0006,-0.0012,-0.0011,-0.001,-0.0009,0.0056,0.0056,0,0,0,0,0,0,-0.0158,-0.015,-0.0118,-0.0115,-0.0132,-0.0101,-0.0096,-0.0091,-0.0062,-0.0057,-0.0073,-0.0071,-0.0033,-0.0029,-0.0026,0.0003,-0.001,-0.0009,-0.0008,0.0055,0.0056,0.0057,0,0,0,0,0,0,-0.016,-0.0156,-0.0119,-0.0131,-0.0126,-0.0101,-0.0095,-0.0091,-0.0082,-0.0057,-0.0052,-0.0069,-0.0033,-0.0028,-0.001,0.0004,-0.0008,-0.0007,0.0054,0.0055,0.0056,0.0048,0,0,0,0,0,0,-0.0161,-0.0157,-0.0158,-0.0132,-0.0126,-0.0107,-0.0095,-0.009,-0.008,-0.0078,-0.0052,-0.0048,-0.0032,-0.0012,-0.0009,0.0006,-0.0006,0.0053,0.0055,0.0056,0.0047,0.0049,0.005,0,0,0,0,0,-0.0163,-0.0161,-0.0158,-0.0154,-0.0127,-0.0107,-0.0103,-0.0084,-0.008,-0.0076,-0.0057,-0.0049,0.0,-0.0011,-0.0007,0.0009,0.0052,0.0054,0.0056,0.0047,0.0049,0.005,0,0,0,0,0,0,-0.0178,-0.0157,-0.0154,-0.0146,-0.0131,-0.0103,-0.0098,-0.0087,-0.0069,-0.0069,-0.0046,-0.004,-0.0016,-0.0003,-0.0016,0.0034,0.003,0.0033,0.0022,0.0024,0.0025,0.0007,-0.0004,0,0,0,0,0,-0.0184,-0.0178,-0.0157,-0.0152,-0.0145,-0.0124,-0.0115,-0.0104,-0.0084,-0.0076,-0.0056,-0.0031,-0.0005,0.0008,0.0029,0.005,0.0071,0.0067,0.0068,0.0069,0.0058,0.0107,0.0111,0.0063,0.0063,0.0063,0,0,-0.0188,-0.0177,-0.0173,-0.0155,-0.0142,-0.0136,-0.0118,-0.0106,-0.0099,-0.0074,-0.0058,-0.0031,0.0001,0.0029,0.0042,0.0041,0.0097,0.0071,0.0072,0.006,0.0109,0.0114,0.0118,0.0064,0.0064,0.0064,0,0,-0.0192,-0.0185,-0.0181,-0.0174,-0.0159,-0.0146,-0.0145,-0.012,-0.0106,-0.0089,-0.0062,-0.0026,0.0003,0.0039,0.0058,0.0079,0.0101,0.0089,0.0082,0.013,0.0134,0.0138,0.0181,0.0189,0.0092,0.0092,0.0092,0,-0.02,-0.02,-0.0177,-0.0176,-0.0183,-0.0153,-0.0162,-0.0136,-0.0108,-0.0101,-0.0087,-0.0024,0.001,0.0052,0.0067,0.0083,0.0107,0.0072,0.0131,0.0135,0.0139,0.0182,0.0191,0.0092,0.0092,0.0092,0.0092,0,-0.0198,-0.021,-0.0208,-0.0203,-0.02,-0.0205,-0.0177,-0.0165,-0.0148,-0.0123,-0.0084,-0.0028,0.0005,0.0037,0.0059,0.0108,0.0116,0.0124,0.0122,0.0143,0.0188,0.0197,0.0092,0.0092,0.0092,0.0092,0,0,-0.0196,-0.0209,-0.0211,-0.0241,-0.0226,-0.0233,-0.0214,-0.02,-0.0201,-0.0143,-0.0132,-0.0051,-0.0022,0.0003,0.005,0.0104,0.017,0.0123,0.0126,0.0158,0.0271,0.0246,0.0253,0.0185,0.0187,0.0188,0.0294,0,-0.0211,-0.0245,-0.0234,-0.0276,-0.0304,-0.0285,-0.028,-0.0259,-0.023,-0.0204,-0.0121,-0.0089,-0.0033,-0.0016,0.0051,0.0136,0.0191,0.014,0.0251,0.0255,0.0224,0.0262,0.0192,0.0301,0.0303,0.0304,0.0305,0,-0.0213,-0.0251,-0.03,-0.0357,-0.0364,-0.0374,-0.0392,-0.0381,-0.0322,-0.0296,-0.0233,-0.0172,-0.0072,-0.0035,0.0128,0.009,0.0173,0.0245,0.0251,0.0231,0.0246,0.0275,0.0322,0.0321,0.0319,0.0318,0.0317,0,-0.0254,-0.0299,-0.0357,-0.0374,-0.0413,-0.0432,-0.0443,-0.0413,-0.0415,-0.035,-0.0339,-0.0218,-0.0154,-0.003,0.0136,0.0127,0.0311,0.0316,0.0374,0.0374,0.0366,0.0361,0.0419,0.0419,0.0419,0.0418,0.0418,0,-0.0286,-0.0335,-0.0387,-0.0427,-0.05,-0.0497,-0.0544,-0.053,-0.0502,-0.0496,-0.0392,-0.0342,-0.015,-0.0017,0.012,0.0282,0.0304,0.0376,0.04,0.0363,0.0356,0.0374,0.0367,0.0422,0.0421,0.0421,0.042,0,-0.0321,-0.0349,-0.0433,-0.0502,-0.0524,-0.0577,-0.0621,-0.0641,-0.0609,-0.0593,-0.0573,-0.0421,-0.0235,-0.0045,0.0177,0.0256,0.0413,0.0461,0.0412,0.0432,0.0445,0.0437,0.0524,0.0524,0.0524,0.0524,0.0524,0,-0.0343,-0.039,-0.0497,-0.0551,-0.0586,-0.0655,-0.0694,-0.0694,-0.0701,-0.063,-0.0612,-0.0441,-0.0317,-0.0008,0.0179,0.0427,0.0454,0.0504,0.0471,0.0441,0.0457,0.0449,0.0441,0.0524,0.0524,0.0524,0.0524,0,-0.0402,-0.0438,-0.0511,-0.0618,-0.0684,-0.0755,-0.0799,-0.0812,-0.0786,-0.0763,-0.0623,-0.046,-0.0248,0.0002,0.0194,0.0368,0.0453,0.0505,0.0506,0.0474,0.0442,0.0456,0.0448,0.0524,0.0524,0.0524,0.0524,0,-0.0442,-0.0506,-0.0594,-0.0683,-0.0765,-0.0819,-0.0843,-0.0824,-0.0821,-0.0728,-0.0671,-0.0438,-0.0289,-0.0027,0.0155,0.032,0.0346,0.0354,0.0363,0.0365,0.028,0.0214,0.0251,0,0,0,0,0,-0.0485,-0.0556,-0.0647,-0.0748,-0.082,-0.086,-0.0896,-0.0897,-0.0867,-0.0775,-0.0722,-0.0514,-0.0226,-0.0081,0.0084,0.0131,0.0352,0.0319,0.036,0.0524,0.0524,0.0449,0,0,0,0,0,0,-0.0519,-0.0612,-0.0658,-0.0769,-0.0833,-0.0909,-0.0928,-0.0908,-0.0839,-0.0775,-0.0593,-0.0518,-0.0206,-0.0304,0.0081,0.0129,0.0162,0.0465,0.0467,0.0524,0.0524,0.0524,0.0447,0,0,0,0,0]}]]